Date String (YYYY-MM-DD hh:mm:ss) UTC,Instrument flags,absolute air pressure of the measurement (hPa),sample flow rate (lpm),inlet stack bypass flow (lpm),air temperature of the measurement (°C),ambient temperature measured by the external sensor (°C),aerosol sample conditioner tube jacket temperature (°C),OPC LED temperature (°C),internal box temperature (°C),relative humidity of the measurement (%),span deviation,mass concentration of particles derived from Lorenz-Mie calculation of OPC scattering (μg/m³),mass concentration of particles derived from Lorenz-Mie calculation of OPC scattering (μg/m³),mass concentration of particles derived from Lorenz-Mie calculation of OPC scattering (μg/m³)
DateTimeUTC,F1_M11,P_M11,Q1_M11,Q2_M11,T1_M11,T2_M11,T3_M11,T4_M11,T5_M11,U1_M11,ZSPAN_M11,X0_M11,X2_M11,X1_M11
2024-02-24 04:00:00,SystemResetWarning,0831.1,4.99,000.00,021.3,020.4,000.0,029.9,023.0,08.6,0000.0,0001.35,0000.59,0000.47
2024-02-24 04:01:00,SystemResetWarning,0831.1,5.00,000.00,021.3,020.4,000.0,029.8,023.0,08.7,0000.0,0001.41,0000.61,0000.47
2024-02-24 04:02:00,SystemResetWarning,0831.1,5.00,000.00,021.3,020.4,000.0,029.8,023.0,08.6,0000.0,0001.39,0000.60,0000.47
2024-02-24 04:03:00,SystemResetWarning,0831.1,5.00,000.00,021.3,020.3,000.0,029.8,022.9,08.5,0000.0,0001.07,0000.60,0000.47
2024-02-24 04:04:00,SystemResetWarning,0831.1,4.99,000.00,021.3,020.3,000.0,029.8,023.0,08.6,0000.0,0001.03,0000.61,0000.47
2024-02-24 04:05:00,SystemResetWarning,0831.0,5.01,000.00,021.3,020.3,000.0,029.8,023.0,08.5,0000.0,0001.05,0000.62,0000.47
2024-02-24 04:06:00,SystemResetWarning,0831.1,5.01,000.00,021.2,020.3,000.0,029.8,023.0,08.5,0000.0,0001.03,0000.65,0000.48
2024-02-24 04:07:00,SystemResetWarning,0831.1,5.00,000.00,021.2,020.3,000.0,029.7,023.0,08.4,0000.0,0001.02,0000.64,0000.48
2024-02-24 04:08:00,SystemResetWarning,0831.1,4.99,000.00,021.2,020.3,000.0,029.7,023.0,08.4,0000.0,0000.98,0000.63,0000.47
2024-02-24 04:09:00,SystemResetWarning,0831.1,4.99,000.00,021.2,020.3,000.0,029.7,022.9,08.5,0000.0,0000.93,0000.62,0000.48
2024-02-24 04:10:00,SystemResetWarning,0831.1,5.00,000.00,021.2,020.3,000.0,029.7,022.9,08.5,0000.0,0000.94,0000.61,0000.48
2024-02-24 04:11:00,SystemResetWarning,0831.0,5.02,000.00,021.2,020.3,000.0,029.7,022.9,08.1,0000.0,0000.94,0000.61,0000.47
2024-02-24 04:12:00,SystemResetWarning,0831.1,5.00,000.00,021.2,020.3,000.0,029.7,023.0,08.2,0000.0,0000.93,0000.61,0000.47
2024-02-24 04:13:00,SystemResetWarning,0831.1,4.99,000.00,021.2,020.3,000.0,029.7,022.9,08.3,0000.0,0000.98,0000.62,0000.47
2024-02-24 04:14:00,SystemResetWarning,0831.1,4.99,000.00,021.2,020.3,000.0,029.7,022.9,08.4,0000.0,0000.97,0000.62,0000.47
2024-02-24 04:15:00,SystemResetWarning,0831.0,5.00,000.00,021.2,020.3,000.0,029.6,022.9,08.4,0000.0,0001.55,0000.62,0000.46
2024-02-24 04:16:00,SystemResetWarning,0831.0,5.01,000.00,021.2,020.3,000.0,029.6,022.9,08.3,0000.0,0001.90,0000.63,0000.47
2024-02-24 04:17:00,SystemResetWarning,0831.0,5.00,000.00,021.2,020.2,000.0,029.6,022.9,08.2,0000.0,0002.50,0000.61,0000.46
2024-02-24 04:18:00,SystemResetWarning,0831.0,4.99,000.00,021.1,020.2,000.0,029.6,022.8,08.3,0000.0,0002.83,0000.60,0000.46
2024-02-24 04:19:00,SystemResetWarning,0831.1,4.99,000.00,021.1,020.2,000.0,029.6,022.8,08.4,0000.0,0002.94,0000.62,0000.46
2024-02-24 04:20:00,SystemResetWarning,0831.1,5.00,000.00,021.1,020.2,000.0,029.6,022.8,08.3,0000.0,0002.99,0000.62,0000.46
2024-02-24 04:21:00,SystemResetWarning,0831.1,5.01,000.00,021.1,020.2,000.0,029.6,022.8,08.3,0000.0,0002.95,0000.61,0000.46
2024-02-24 04:22:00,SystemResetWarning,0831.1,5.01,000.00,021.1,020.2,000.0,029.6,022.8,08.3,0000.0,0002.97,0000.61,0000.45
2024-02-24 04:23:00,SystemResetWarning,0831.1,4.99,000.00,021.1,020.2,000.0,029.6,022.8,08.4,0000.0,0002.99,0000.62,0000.46
2024-02-24 04:24:00,SystemResetWarning,0831.1,4.99,000.00,021.1,020.2,000.0,029.5,022.8,08.4,0000.0,0002.91,0000.59,0000.46
2024-02-24 04:25:00,SystemResetWarning,0831.1,5.00,000.00,021.1,020.2,000.0,029.5,022.8,08.4,0000.0,0003.08,0000.62,0000.46
2024-02-24 04:26:00,SystemResetWarning,0831.1,5.01,000.00,021.1,020.3,000.0,029.5,022.8,08.4,0000.0,0002.64,0000.60,0000.46
2024-02-24 04:27:00,SystemResetWarning,0831.1,5.01,000.00,021.1,020.3,000.0,029.5,022.8,08.5,0000.0,0002.15,0000.59,0000.46
2024-02-24 04:28:00,SystemResetWarning,0831.1,5.00,000.00,021.1,020.3,000.0,029.5,022.8,08.5,0000.0,0001.59,0000.61,0000.47
2024-02-24 04:29:00,SystemResetWarning,0831.0,5.00,000.00,021.1,020.3,000.0,029.5,022.8,08.1,0000.0,0001.18,0000.61,0000.46
2024-02-24 04:30:00,SystemResetWarning,0831.0,4.99,000.00,021.1,020.3,000.0,029.5,022.8,08.2,0000.0,0001.10,0000.59,0000.46
2024-02-24 04:31:00,SystemResetWarning,0830.9,4.99,000.00,021.1,020.3,000.0,029.5,022.8,08.3,0000.0,0001.08,0000.60,0000.46
2024-02-24 04:32:00,SystemResetWarning,0830.9,4.99,000.00,021.1,020.3,000.0,029.5,022.8,08.3,0000.0,0001.08,0000.60,0000.46
2024-02-24 04:33:00,SystemResetWarning,0830.9,5.00,000.00,021.1,020.3,000.0,029.5,022.8,08.2,0000.0,0001.06,0000.60,0000.46
2024-02-24 04:34:00,SystemResetWarning,0830.9,5.00,000.00,021.1,020.2,000.0,029.5,022.8,08.4,0000.0,0001.00,0000.58,0000.47
2024-02-24 04:35:00,SystemResetWarning,0830.9,5.01,000.00,021.1,020.2,000.0,029.5,022.8,09.0,0000.0,0001.01,0000.59,0000.47
2024-02-24 04:36:00,SystemResetWarning,0830.9,5.01,000.00,021.1,020.2,000.0,029.5,022.8,08.0,0000.0,0000.87,0000.57,0000.48
2024-02-24 04:37:00,SystemResetWarning,0830.9,5.00,000.00,021.1,020.2,000.0,029.5,022.8,07.7,0000.0,0000.85,0000.58,0000.48
2024-02-24 04:38:00,SystemResetWarning,0830.9,5.00,000.00,021.0,020.2,000.0,029.4,022.7,07.7,0000.0,0000.88,0000.59,0000.48
2024-02-24 04:39:00,SystemResetWarning,0830.9,4.99,000.00,021.0,020.2,000.0,029.4,022.7,08.3,0000.0,0000.82,0000.58,0000.48
2024-02-24 04:40:00,SystemResetWarning,0830.8,4.99,000.00,021.0,020.2,000.0,029.4,022.7,08.7,0000.0,0000.82,0000.59,0000.48
2024-02-24 04:41:00,SystemResetWarning,0830.8,5.00,000.00,021.0,020.2,000.0,029.4,022.7,08.4,0000.0,0000.86,0000.62,0000.48
2024-02-24 04:42:00,SystemResetWarning,0830.8,5.00,000.00,021.0,020.1,000.0,029.4,022.8,07.8,0000.0,0001.09,0000.65,0000.49
2024-02-24 04:43:00,SystemResetWarning,0830.7,5.00,000.00,021.0,020.1,000.0,029.4,022.7,07.7,0000.0,0001.54,0000.67,0000.50
2024-02-24 04:44:00,SystemResetWarning,0830.7,5.00,000.00,021.0,020.1,000.0,029.4,022.7,07.6,0000.0,0001.56,0000.68,0000.50
2024-02-24 04:45:00,SystemResetWarning,0830.7,5.00,000.00,021.0,020.1,000.0,029.4,022.7,07.6,0000.0,0001.57,0000.68,0000.50
2024-02-24 04:46:00,SystemResetWarning,0830.6,5.00,000.00,021.0,020.1,000.0,029.4,022.7,07.6,0000.0,0001.55,0000.66,0000.49
2024-02-24 04:47:00,SystemResetWarning,0830.6,5.01,000.00,021.0,020.1,000.0,029.4,022.7,07.2,0000.0,0001.54,0000.66,0000.49
2024-02-24 04:48:00,SystemResetWarning,0830.7,5.01,000.00,021.0,020.1,000.0,029.4,022.7,07.2,0000.0,0001.56,0000.66,0000.49
2024-02-24 04:49:00,SystemResetWarning,0830.7,5.01,000.00,020.9,020.1,000.0,029.4,022.7,07.3,0000.0,0001.60,0000.67,0000.48
2024-02-24 04:50:00,SystemResetWarning,0830.8,5.00,000.00,020.9,020.1,000.0,029.4,022.6,07.6,0000.0,0001.67,0000.69,0000.48
2024-02-24 04:51:00,SystemResetWarning,0830.8,5.00,000.00,020.9,020.1,000.0,029.4,022.6,07.6,0000.0,0001.69,0000.70,0000.49
2024-02-24 04:52:00,SystemResetWarning,0830.8,4.99,000.00,020.9,020.1,000.0,029.4,022.7,07.7,0000.0,0001.63,0000.67,0000.49
2024-02-24 04:53:00,SystemResetWarning,0830.8,5.00,000.00,020.9,020.1,000.0,029.4,022.6,07.8,0000.0,0001.51,0000.68,0000.49
2024-02-24 04:54:00,SystemResetWarning,0830.9,5.00,000.00,020.9,020.1,000.0,029.4,022.6,08.2,0000.0,0001.05,0000.67,0000.49
2024-02-24 04:55:00,SystemResetWarning,0830.8,5.00,000.00,020.9,020.1,000.0,029.3,022.6,08.7,0000.0,0001.10,0000.67,0000.49
2024-02-24 04:56:00,SystemResetWarning,0830.8,5.00,000.00,020.9,020.0,000.0,029.3,022.6,08.9,0000.0,0001.16,0000.68,0000.48
2024-02-24 04:57:00,SystemResetWarning,0830.8,5.00,000.00,020.9,020.0,000.0,029.3,022.6,08.9,0000.0,0001.23,0000.71,0000.49
2024-02-24 04:58:00,SystemResetWarning,0830.8,5.00,000.00,020.9,020.0,000.0,029.3,022.6,08.9,0000.0,0001.34,0000.76,0000.49
2024-02-24 04:59:00,SystemResetWarning,0830.8,4.99,000.00,020.9,020.0,000.0,029.3,022.6,08.6,0000.0,0001.32,0000.76,0000.50
